Theta_e
313 313 313 313 313 313 314 314 314 313 313 315 315 316 316 317 318 318 318 319 319 319 320 321 321 322 322 322 322 322 320 317 314 310 309 313 320 323 323 323 321 321 322 321 318 317 314 317 318 320 316 313 314 312 319 317 318 316 308 306 305 307 306 310 308 309 311 310 309 305 306 307 306 306 307 309 309 310 310 311 314 316 318 322 323 323 324 330
312 312 312 313 313 313 314 314 314 314 315 315 314 315 316 316 317 317 318 318 318 319 319 320 321 321 322 322 321 321 318 316 310 308 308 321 326 328 329 327 324 322 322 315 313 313 313 314 317 318 313 309 318 311 314 312 316 310 308 307 304 308 310 312 312 312 310 311 311 308 305 307 308 308 308 307 307 308 307 310 312 313 318 321 322 324 325 327
312 312 312 312 312 313 313 313 314 314 314 314 315 314 315 316 316 317 317 317 317 318 318 319 320 320 321 321 321 321 317 312 308 303 316 323 322 322 325 325 325 323 320 314 316 313 314 315 317 316 315 309 312 309 313 311 313 312 309 303 305 312 312 312 313 312 312 312 311 309 306 304 307 308 310 306 307 308 306 307 309 310 312 317 322 323 325 326
311 311 311 312 312 312 313 313 313 313 314 314 314 314 314 315 315 316 316 316 317 317 317 318 319 320 320 321 321 320 315 308 303 309 320 322 321 321 320 326 326 325 323 320 319 315 318 317 317 315 312 307 310 312 307 312 309 312 308 304 307 312 309 312 313 314 313 312 311 308 303 303 306 307 308 307 306 307 308 311 310 310 311 315 322 323 324 324
310 310 311 311 311 312 312 312 312 313 313 314 313 314 314 314 314 315 315 316 316 316 317 317 318 320 320 320 319 320 311 298 299 316 322 322 320 319 318 323 327 327 323 323 321 320 319 317 315 314 311 304 309 309 307 311 313 312 307 309 310 312 309 313 314 314 313 310 310 305 304 305 308 306 307 308 305 306 310 312 313 313 314 318 321 323 324 324
310 310 310 310 310 311 311 311 312 312 312 312 313 313 314 314 314 314 315 315 315 316 316 317 318 319 319 319 319 317 307 288 309 316 326 322 320 318 318 327 328 327 326 321 318 319 317 313 312 309 307 306 305 302 307 309 312 303 308 310 312 312 309 313 314 312 311 310 309 305 307 307 306 306 308 308 307 310 311 309 312 313 314 320 324 324 323 324
310 310 310 310 310 310 311 311 311 311 312 312 312 312 312 313 314 314 314 315 315 315 315 316 317 319 318 319 316 311 304 306 312 321 323 321 319 316 316 325 327 327 324 319 317 315 314 312 310 308 307 306 307 305 307 308 310 307 304 309 309 312 311 313 312 310 310 310 309 308 307 306 306 304 307 306 310 312 309 310 313 310 313 322 323 323 323 324
310 309 309 309 310 310 310 310 311 311 311 311 312 312 312 312 313 313 314 314 314 315 315 315 316 318 318 317 310 304 303 303 312 316 315 317 314 314 314 319 322 324 321 317 316 312 314 310 309 308 305 303 305 305 308 306 308 305 304 307 308 309 311 313 311 309 309 309 309 308 309 309 308 306 306 306 310 312 310 314 312 313 316 319 322 323 324 325
309 309 309 309 309 310 310 310 311 311 311 311 311 312 312 312 312 312 313 313 314 314 314 315 315 316 317 315 306 301 300 311 315 317 316 313 311 311 314 310 323 318 316 320 319 316 313 310 311 309 303 304 306 305 306 303 300 306 306 309 308 308 310 311 311 311 309 311 310 309 311 312 307 308 306 309 311 312 316 315 316 317 317 318 320 323 324 325
309 309 309 309 309 309 310 310 310 310 311 311 312 312 312 312 312 312 312 312 313 313 313 314 315 316 313 309 305 294 307 309 312 312 311 310 311 311 313 317 322 320 315 315 319 317 312 312 312 314 309 306 307 304 308 304 301 306 307 307 307 309 310 310 309 312 311 311 310 309 310 312 307 308 307 313 313 312 312 313 317 316 315 318 320 322 324 325
309 309 309 309 309 310 310 310 310 310 311 311 311 312 312 312 312 312 312 312 312 313 313 314 315 314 309 309 299 294 312 312 313 312 311 311 311 310 309 311 321 320 315 317 316 319 318 316 316 314 310 306 306 303 306 306 309 307 307 307 307 308 309 310 309 309 310 309 311 311 310 310 307 307 308 312 313 313 312 313 315 316 316 318 319 321 324 324
309 309 309 309 309 309 310 310 310 310 311 311 311 311 311 311 311 312 312 312 312 312 313 313 313 314 309 304 300 300 314 313 314 312 312 310 309 308 308 309 312 317 317 313 315 320 320 319 316 311 303 310 302 304 303 307 307 306 306 301 304 306 305 308 307 309 310 308 311 312 309 307 307 306 311 313 313 314 312 314 316 316 317 319 320 320 322 323
311 310 310 310 309 309 310 310 310 310 311 311 310 310 311 311 311 311 312 311 312 312 313 313 314 314 306 295 301 310 314 314 313 311 311 311 309 309 309 310 313 314 315 314 314 319 321 320 317 311 311 308 306 300 304 308 307 306 305 302 301 301 301 306 309 309 308 309 310 310 297 302 307 310 313 315 312 313 311 312 315 317 318 319 319 320 321 323
310 310 311 310 311 310 309 310 310 310 311 311 311 310 310 311 311 311 312 311 313 312 313 313 316 309 304 297 306 312 316 316 313 312 312 311 308 308 308 315 317 316 318 316 318 320 321 322 318 314 316 309 305 315 308 305 303 300 302 303 297 296 295 304 307 308 305 309 309 310 297 301 307 311 314 315 313 312 312 312 313 315 317 318 320 320 320 322
311 311 311 310 311 311 311 310 310 310 310 310 310 310 310 310 311 311 311 312 312 312 312 313 314 306 298 299 310 315 316 315 310 310 313 310 308 308 308 310 311 310 317 319 319 321 322 321 316 310 307 314 312 307 303 303 302 302 297 294 298 295 296 302 308 307 302 307 310 308 298 300 305 311 314 315 313 313 313 313 313 314 315 317 318 319 320 321
311 311 311 312 311 311 311 311 311 311 311 310 310 310 310 311 311 311 311 311 311 311 314 309 307 304 298 292 302 316 312 306 307 312 314 312 310 306 308 308 309 310 316 317 321 320 320 318 310 310 309 310 306 302 300 300 299 300 297 296 295 297 295 298 304 308 306 307 308 306 298 303 304 310 313 315 313 312 312 314 315 315 315 316 317 318 319 321
310 311 311 310 310 311 311 311 311 311 311 311 310 310 310 310 311 310 311 310 311 312 310 302 307 306 290 305 310 302 301 308 309 308 309 311 311 310 308 307 306 308 314 317 317 317 316 310 312 310 310 304 304 303 295 293 294 296 299 295 298 295 296 294 301 304 308 306 303 306 301 302 305 309 311 311 313 311 311 313 315 315 315 316 317 317 317 318
310 310 310 310 311 311 311 311 311 311 311 311 310 309 309 310 311 310 309 311 311 309 308 309 306 298 293 304 295 299 304 306 308 307 307 308 310 309 307 304 309 309 311 308 313 307 311 305 309 300 303 301 302 299 292 287 291 293 295 294 295 297 297 295 296 300 304 305 303 304 303 302 305 308 310 311 311 311 311 313 314 315 316 316 316 316 317 317
310 310 310 310 311 311 311 311 311 310 311 310 309 309 309 310 311 309 305 305 300 295 290 293 295 283 283 295 301 302 303 306 306 306 305 305 307 308 308 308 308 304 301 299 301 304 307 304 305 298 293 296 296 298 295 295 295 296 297 296 296 295 295 294 299 301 303 302 301 302 301 302 304 306 307 311 311 310 311 313 314 315 316 316 316 316 316 317
310 310 310 310 310 310 311 311 311 311 310 307 307 306 304 298 298 296 300 301 296 295 296 298 299 298 297 297 300 306 308 307 302 303 306 307 305 304 303 305 305 304 300 295 299 302 307 295 293 293 295 299 300 300 300 300 298 296 296 296 296 296 297 298 298 301 303 302 300 301 302 302 304 306 306 308 311 309 310 311 312 314 314 315 315 315 316 316
309 310 310 310 310 310 310 310 310 310 310 308 306 301 292 292 287 285 293 296 299 300 298 298 300 297 296 302 304 303 299 300 303 302 304 311 306 303 299 301 298 295 297 299 296 306 304 293 292 296 298 300 301 302 302 300 300 297 296 295 294 296 294 299 298 300 300 299 298 302 301 301 303 306 307 308 309 308 309 310 311 312 313 314 315 315 316 317
309 310 310 310 310 310 310 310 310 310 309 308 304 298 299 298 301 303 297 288 296 299 300 299 300 297 302 302 305 306 303 297 298 301 307 307 302 297 299 297 295 292 298 298 297 295 292 289 293 298 300 301 302 302 302 300 298 298 295 295 293 294 298 298 299 301 300 299 297 301 299 300 303 306 308 308 308 309 311 311 312 312 313 313 314 315 315 316
309 310 310 310 310 310 310 310 310 309 307 304 300 300 299 304 306 307 302 296 291 298 298 298 296 296 297 302 303 304 295 294 292 300 302 304 300 298 299 295 294 295 296 296 291 290 288 291 295 299 301 300 301 301 300 299 299 296 296 293 291 295 293 291 297 299 299 299 297 299 297 298 301 305 307 309 309 309 312 312 312 313 312 313 313 314 314 315
309 310 310 310 310 310 310 309 309 308 305 304 302 301 306 308 307 305 297 287 286 293 296 298 298 297 297 296 302 300 295 295 296 295 308 303 297 299 297 296 294 294 291 294 293 291 289 294 300 299 299 299 297 299 298 297 295 297 297 295 294 294 294 294 295 297 299 300 299 297 296 296 299 299 301 305 309 309 310 311 311 312 313 314 315 315 315 314
309 310 310 310 310 310 309 309 305 304 306 303 301 306 308 308 307 306 295 289 288 287 298 297 299 298 299 310 306 296 297 297 297 302 306 303 298 295 293 299 296 290 293 295 294 292 292 296 302 298 298 298 297 295 297 297 293 295 298 297 296 297 295 294 295 295 293 293 298 296 289 290 297 298 299 302 304 304 307 307 309 310 311 312 311 312 314 315
309 310 310 310 310 309 309 302 302 306 302 300 302 306 308 307 307 307 294 282 277 285 293 285 300 291 305 297 301 298 299 290 299 302 306 305 306 298 298 293 294 289 293 293 292 293 293 297 296 297 298 297 296 295 298 299 293 292 294 300 299 298 297 296 294 294 289 287 296 299 288 286 297 296 299 300 301 302 304 305 306 308 310 311 312 312 313 314
309 309 310 310 310 309 303 297 306 304 297 298 306 308 306 306 307 301 287 278 274 288 284 293 293 292 298 298 298 299 280 285 300 303 304 307 299 305 293 291 293 294 296 296 291 287 294 294 293 294 296 296 295 292 297 298 295 290 300 300 300 298 296 295 295 294 292 297 297 295 295 288 288 294 299 300 300 300 301 303 304 306 308 310 311 312 313 314
309 309 309 310 309 309 303 305 302 298 298 304 309 307 304 304 304 299 284 269 267 290 283 290 293 303 297 300 300 291 292 297 288 296 303 307 303 299 296 292 291 291 293 292 280 294 292 292 292 291 291 292 291 296 298 299 295 295 300 301 298 299 298 297 295 293 293 292 288 292 296 289 288 294 299 300 296 298 299 301 303 305 307 308 309 310 312 313
309 309 309 309 309 309 309 304 302 299 304 309 307 304 304 304 298 287 277 268 280 283 302 288 305 297 297 299 294 294 292 295 286 296 302 304 305 301 291 293 294 293 295 293 287 291 295 295 294 294 292 288 293 297 300 299 294 299 302 302 300 300 299 297 295 293 292 289 284 289 293 286 286 293 295 298 296 296 298 301 302 304 305 306 307 308 309 311
309 309 309 309 308 307 307 308 303 306 308 308 305 302 300 296 288 278 271 266 282 274 289 292 291 289 295 289 289 292 290 292 297 298 299 296 300 303 298 302 295 293 291 294 292 293 296 298 299 295 292 293 294 296 300 300 300 297 302 298 297 297 297 297 296 294 289 282 285 291 293 290 283 291 294 294 295 298 300 301 303 304 305 306 307 308 309 309
309 309 309 309 303 305 305 300 303 308 308 305 303 301 295 287 280 274 267 275 283 282 290 289 287 295 288 286 284 291 291 292 293 295 292 297 294 297 295 293 296 290 289 290 289 292 293 295 296 299 300 301 298 295 300 303 302 297 296 294 294 292 293 292 290 293 283 280 288 292 292 293 282 287 295 298 301 301 300 299 301 301 303 304 306 307 308 308
308 308 308 307 308 308 299 297 305 308 304 304 301 293 289 276 280 271 271 285 274 280 281 284 289 289 288 290 288 288 287 290 292 290 289 290 288 288 288 283 289 279 280 283 283 291 288 290 295 296 301 300 296 292 296 299 299 296 294 292 286 283 285 279 284 279 280 281 289 293 293 289 287 291 296 298 299 300 301 302 302 302 302 304 305 307 308 308
308 308 308 307 307 305 304 306 308 305 304 302 296 290 282 275 267 276 274 277 274 284 281 290 287 288 288 287 285 289 291 285 292 290 292 292 289 289 292 289 292 286 279 285 284 285 285 292 292 293 296 300 299 289 289 289 293 293 290 288 283 280 279 277 281 284 284 288 293 291 295 287 292 294 299 298 300 302 302 302 303 303 303 303 304 306 305 308
307 307 305 306 307 306 307 308 305 304 300 298 291 284 280 271 272 282 277 278 275 284 287 287 288 288 287 283 285 289 283 289 288 289 290 286 287 284 287 290 290 287 283 286 282 283 278 279 286 291 286 298 297 295 293 291 292 291 295 292 287 285 282 277 280 278 280 284 288 292 288 284 286 290 300 301 302 303 304 304 305 305 305 305 306 306 306 307
306 306 305 305 306 305 306 307 304 304 299 294 286 281 273 273 278 276 277 278 278 284 285 289 285 284 283 285 288 289 288 283 290 288 287 285 283 285 285 286 290 291 287 281 285 284 282 283 290 295 294 296 293 298 300 295 293 294 293 295 288 285 293 283 286 285 285 284 284 285 286 291 291 300 298 300 300 302 303 304 304 304 304 304 303 303 304 304
303 301 304 299 298 299 302 304 304 302 296 290 282 277 275 279 276 280 280 285 284 281 284 286 284 281 281 283 286 285 291 285 287 287 284 286 286 284 289 290 289 291 286 281 287 280 284 281 291 294 295 294 294 298 299 298 283 292 292 285 288 298 294 287 287 288 287 285 282 290 289 292 298 298 300 301 300 300 301 301 303 303 305 305 303 304 304 305
300 301 295 296 296 300 301 303 303 300 295 288 281 276 281 282 284 284 286 283 284 287 282 277 278 279 276 278 282 284 285 288 285 284 280 286 283 286 286 288 293 292 292 289 285 289 282 283 288 290 288 294 297 298 300 299 299 292 285 290 295 292 288 287 280 285 283 279 282 288 285 288 289 285 299 298 298 300 300 301 301 302 304 303 304 305 306 307
298 298 296 295 298 302 303 300 299 295 290 285 278 281 281 281 285 285 288 286 285 286 281 278 279 283 278 279 279 283 286 282 283 284 280 285 280 292 288 287 293 293 293 294 286 286 287 280 286 290 290 294 297 297 295 300 301 293 289 301 289 282 281 286 284 276 276 277 281 286 288 288 290 289 294 294 297 298 300 301 302 301 301 302 303 304 305 305
299 297 289 295 301 302 301 301 298 291 286 281 279 279 281 279 286 285 287 287 287 284 280 281 278 281 282 280 282 285 284 279 284 282 279 283 279 290 289 291 289 294 295 294 287 288 287 279 282 288 289 292 295 292 283 289 296 297 297 292 289 290 286 284 284 285 285 280 281 282 287 284 293 294 296 296 298 299 300 300 300 301 302 303 304 305 305 304
295 291 287 298 302 303 302 300 292 288 285 279 280 280 282 279 285 288 288 288 285 283 281 281 282 279 281 281 284 281 285 284 284 283 283 285 283 292 288 293 289 292 294 295 289 291 284 286 276 286 289 291 284 290 286 288 286 289 290 288 290 288 292 291 290 286 282 280 281 281 281 286 294 299 298 298 299 300 300 300 303 304 304 302 302 303 304 303
296 290 288 299 301 303 301 295 287 284 282 283 282 281 280 282 286 287 288 288 287 286 285 283 282 279 281 281 281 285 283 284 285 283 283 284 285 280 291 292 293 291 294 292 289 288 283 282 277 285 283 284 286 293 292 292 292 290 288 286 288 286 284 280 279 291 286 284 280 281 279 287 295 294 297 299 300 298 299 299 300 302 301 301 302 302 301 301
291 283 286 298 301 302 295 285 285 287 284 281 280 282 282 289 285 286 287 288 287 286 285 286 286 283 282 281 283 284 283 283 284 283 284 282 287 286 290 292 289 290 288 285 286 291 288 286 282 280 282 285 289 291 291 289 294 294 292 289 290 289 288 283 277 282 287 287 289 286 283 285 296 295 296 297 298 298 299 298 298 300 301 301 301 301 300 299
287 285 294 297 301 299 290 283 285 284 282 283 282 285 286 286 285 284 283 287 283 288 283 282 283 284 285 283 283 282 285 281 284 282 284 285 287 289 292 293 293 289 289 286 288 291 290 283 279 281 286 288 289 287 286 287 290 290 292 294 291 286 288 286 285 286 285 286 284 284 280 286 297 296 296 297 296 296 296 295 298 299 300 301 301 301 300 300
287 287 291 298 300 298 286 278 278 280 282 283 283 283 286 285 283 283 282 282 284 285 283 285 284 285 284 287 285 282 286 278 285 285 283 287 285 293 292 293 291 287 287 287 285 291 282 284 282 278 277 280 283 286 287 287 288 287 288 291 292 292 291 289 287 288 282 284 284 283 278 285 295 296 296 296 297 297 298 298 296 299 301 302 301 300 300 300
289 287 286 289 297 295 284 282 281 280 280 279 280 279 280 281 286 286 286 283 284 286 284 284 286 286 284 286 285 287 287 283 279 287 286 286 286 289 287 291 291 287 291 293 292 294 285 284 281 275 272 271 271 272 275 279 284 288 290 291 292 291 289 287 282 284 279 283 285 282 282 290 296 298 297 298 298 299 298 298 297 298 299 301 302 301 300 300
283 278 283 286 286 289 287 285 283 282 280 279 278 280 281 279 284 286 287 284 287 285 286 285 285 287 282 283 281 280 282 285 282 281 284 284 287 289 290 290 291 290 291 292 293 291 284 286 284 282 280 277 280 283 288 290 287 283 285 288 289 292 292 290 287 283 280 283 282 284 286 287 289 292 294 296 295 296 297 299 299 299 300 301 301 300 300 300
288 281 279 280 283 284 283 286 284 283 281 283 278 281 278 280 282 284 289 283 288 286 284 284 281 282 282 283 281 281 284 283 285 283 282 283 286 289 290 290 291 292 292 291 293 289 283 281 283 283 283 284 286 286 287 289 285 286 285 286 289 289 289 287 284 281 287 283 279 286 288 286 287 290 292 293 295 296 299 301 300 300 301 302 302 300 296 298
282 281 281 282 279 279 281 281 285 283 284 283 281 283 281 281 282 280 285 287 287 287 283 284 279 284 285 284 284 279 282 281 282 280 284 285 285 287 287 290 288 290 291 291 293 288 283 280 284 283 283 286 287 287 288 288 287 287 287 287 286 288 288 284 285 288 287 283 280 287 287 286 288 290 292 293 295 295 297 301 301 301 300 301 300 301 302 301
286 284 284 286 282 280 281 282 285 284 283 283 282 283 281 281 280 283 283 284 285 284 285 280 282 284 285 286 284 281 282 277 278 283 283 283 284 284 283 286 289 291 290 288 287 287 284 282 284 284 282 284 285 286 286 285 286 286 286 287 288 287 286 287 286 289 287 285 287 288 288 288 291 291 293 295 297 298 301 300 299 299 300 301 301 301 301 302
285 285 284 286 286 285 284 284 284 283 281 284 280 282 282 282 281 283 285 283 280 283 286 282 283 284 284 284 284 282 283 284 283 281 286 285 284 285 284 285 285 288 288 286 287 285 284 280 285 284 282 281 284 286 287 285 284 283 285 287 288 288 288 288 287 288 287 286 287 287 286 287 293 295 295 297 299 301 300 298 298 299 301 301 301 302 302 302
289 289 289 284 281 284 286 285 283 283 282 284 282 283 283 284 283 286 284 288 285 283 284 283 285 285 286 284 283 283 286 286 286 286 287 287 282 288 284 285 289 285 286 285 285 284 285 282 284 282 279 279 283 284 284 285 284 282 282 284 284 285 284 286 286 288 287 285 286 286 285 286 292 295 296 297 296 296 296 297 297 298 300 301 300 300 301 301
287 291 290 288 281 286 284 286 284 283 280 284 285 285 284 284 286 285 282 288 289 289 288 287 287 285 284 283 282 285 288 289 289 290 290 291 292 291 291 290 291 287 285 286 288 285 284 283 282 281 278 278 284 285 283 283 281 278 279 283 286 287 288 290 291 291 291 291 287 284 285 292 294 296 295 296 296 295 296 296 297 298 299 301 300 301 302 303
Wind_Speed
14 13 12 12 12 12 12 12 11 11 10 11 11 11 11 12 12 13 13 12 12 11 11 12 12 12 12 11 10 12 12 9 11 9 7 6 10 15 16 15 16 15 10 7 9 8 7 6 8 10 3 4 1 4 2 2 1 3 6 6 7 6 6 3 5 5 4 2 4 5 7 7 7 5 3 3 4 2 3 6 2 2 5 2 3 2 3 10
14 13 13 13 12 12 12 11 11 11 10 10 10 10 10 11 11 11 12 12 11 11 11 11 12 12 12 10 9 9 10 9 11 11 7 9 9 7 11 14 13 12 8 7 4 6 6 4 6 7 1 5 3 2 1 3 2 7 4 6 9 7 4 0 2 4 3 1 1 1 3 8 6 5 5 6 6 7 6 6 5 6 6 3 2 4 7 11
14 14 13 13 13 12 12 12 12 11 10 10 10 10 10 10 11 10 11 11 11 11 10 11 11 12 12 9 9 7 7 9 9 6 2 6 12 15 14 6 9 8 7 6 2 3 3 4 4 4 1 4 1 3 2 3 5 7 5 8 10 5 4 3 3 5 8 2 3 3 3 7 4 3 5 7 5 5 10 8 7 9 11 10 6 6 8 11
13 13 13 13 12 13 13 13 12 12 12 11 10 10 10 10 10 10 10 10 11 11 10 10 11 11 11 9 7 7 6 8 7 5 4 4 10 13 15 13 6 4 3 5 4 3 1 3 3 3 2 5 3 3 5 4 6 4 7 9 8 6 6 8 8 8 5 3 3 2 3 4 6 4 6 5 6 9 9 10 10 12 13 10 9 8 10 11
12 12 12 12 12 12 12 13 12 12 12 11 11 11 11 10 10 10 9 9 10 11 11 9 10 10 10 8 5 5 6 8 2 5 7 7 10 12 12 11 6 1 3 3 4 3 3 3 3 0 2 5 3 3 8 5 3 2 10 11 8 3 8 8 6 6 5 0 4 3 5 4 5 3 8 7 10 7 7 9 12 11 8 10 11 11 10 12
13 13 12 13 13 13 13 13 13 12 12 12 11 11 11 11 11 10 10 9 9 10 11 10 9 9 8 5 5 3 1 5 2 4 7 6 11 12 12 8 4 2 3 6 4 3 4 2 4 4 3 4 7 9 4 5 2 9 9 8 4 5 10 3 4 4 6 5 6 4 4 4 7 5 8 10 14 1 5 5 2 6 1 4 8 11 11 12
12 12 12 12 12 13 13 13 12 12 12 13 12 12 11 11 11 11 10 10 9 9 10 10 9 9 7 5 2 2 6 7 2 4 6 9 11 10 9 2 2 3 3 3 5 4 5 3 6 4 4 3 4 6 1 1 2 7 9 4 7 6 10 2 4 3 7 7 6 0 3 6 6 9 3 10 15 6 5 3 2 1 3 8 11 12 14 15
12 12 12 12 12 12 12 12 12 12 12 12 12 12 11 11 11 11 10 10 9 9 9 9 8 8 5 5 5 5 7 9 9 3 6 9 11 10 6 1 2 3 2 1 4 5 4 6 6 2 5 7 3 8 2 5 5 9 11 7 4 2 8 7 3 2 3 3 2 3 4 6 8 3 4 10 13 10 5 1 1 2 5 7 10 12 11 11
12 12 12 12 12 11 11 12 12 12 12 12 12 12 12 11 11 11 11 10 10 9 9 9 8 7 2 2 5 7 12 9 11 11 10 9 9 6 4 2 1 3 2 1 4 4 5 5 4 5 3 5 3 5 3 5 9 11 10 4 5 6 4 4 6 6 5 2 3 4 9 5 2 3 8 14 7 6 4 4 3 4 5 8 10 12 12 12
12 12 12 12 12 12 11 11 11 12 12 12 12 12 11 11 10 11 11 11 10 10 9 9 7 6 4 3 5 11 2 4 4 4 3 0 2 1 5 4 1 3 2 1 2 6 7 3 5 3 3 3 2 6 4 7 2 2 1 5 7 9 10 3 7 9 5 7 3 9 11 8 4 4 8 9 7 5 5 8 5 6 7 9 8 9 10 11
12 12 12 12 11 11 12 11 11 11 11 12 12 12 12 11 11 10 11 11 10 10 9 9 6 4 5 4 9 13 2 1 2 4 4 3 3 3 5 4 3 1 2 1 2 5 6 5 2 1 2 4 4 2 4 2 3 2 2 6 9 10 10 7 5 8 2 8 10 10 13 0 3 4 11 2 3 4 8 9 7 8 8 7 9 9 8 9
14 13 12 11 11 11 11 12 11 11 11 11 12 12 11 11 11 11 10 10 11 10 10 10 6 2 4 7 10 9 4 2 1 2 2 2 2 2 2 2 1 3 0 3 3 4 5 6 3 6 2 3 5 2 5 1 3 1 2 7 7 7 11 12 13 12 5 8 5 6 11 14 9 11 12 10 4 4 5 6 7 9 7 6 7 7 7 9
14 15 15 14 12 11 11 12 12 12 11 11 11 11 11 11 11 11 10 9 8 8 7 6 1 1 4 11 10 9 11 9 2 1 1 0 2 1 1 2 2 1 2 4 4 2 5 6 5 9 2 3 2 4 2 3 2 3 5 7 8 10 14 15 9 11 9 8 5 7 11 15 15 15 16 8 5 4 4 7 8 7 7 6 7 7 8 8
14 13 12 13 14 14 12 12 13 12 12 11 11 10 10 11 11 10 9 8 8 6 7 5 2 2 5 8 3 3 4 5 4 6 9 2 4 2 1 2 0 1 1 4 5 5 5 4 8 9 2 5 3 3 5 1 2 7 4 4 9 8 13 8 11 10 12 6 7 9 15 12 13 17 17 10 9 8 9 10 9 8 7 6 6 7 8 9
14 14 12 11 12 13 14 14 13 13 12 12 11 10 9 8 9 8 8 7 4 3 1 2 1 4 6 7 4 5 0 3 9 10 8 7 7 7 6 5 5 3 2 3 4 3 4 3 4 6 7 6 6 6 4 4 2 3 6 10 10 12 9 6 5 15 15 4 9 10 15 14 13 11 16 12 9 10 13 13 11 9 8 8 7 8 8 8
13 11 12 12 12 12 13 13 13 13 13 12 11 10 7 4 4 7 6 7 4 1 1 4 2 4 8 13 2 3 4 4 8 11 7 2 5 10 1 2 5 4 3 2 2 3 2 3 6 6 6 4 9 8 5 6 8 6 11 9 11 11 12 5 10 11 17 9 11 19 11 3 14 9 7 8 11 11 13 15 14 12 11 10 8 7 7 6
14 13 12 12 12 12 12 13 13 12 11 12 12 6 2 1 4 4 6 1 0 1 2 3 1 0 5 2 1 4 5 5 3 1 2 5 8 6 2 4 7 8 3 1 1 2 1 5 1 3 7 7 7 8 8 11 10 11 11 13 9 13 8 10 6 4 8 13 12 16 17 14 3 3 8 4 10 12 13 16 16 14 11 11 8 8 8 8
14 14 14 13 12 12 12 13 12 13 12 10 11 3 3 2 2 3 1 2 0 1 2 0 2 5 10 9 10 1 2 2 2 1 1 1 5 7 7 6 3 4 3 5 1 5 4 5 5 6 6 10 10 11 13 16 15 11 11 12 12 7 11 10 6 4 9 7 11 12 18 19 11 3 4 6 7 12 15 15 16 16 15 13 10 9 10 9
14 14 14 14 13 13 12 13 14 12 10 10 4 3 4 3 1 1 3 2 2 3 3 6 6 7 2 2 3 2 2 1 3 4 4 4 3 4 5 4 4 7 6 5 4 9 5 5 4 6 11 12 15 17 18 3 3 8 11 13 10 10 10 12 3 2 6 8 11 13 13 16 16 13 13 7 9 11 14 16 15 16 16 14 11 10 10 9
15 14 14 14 14 13 13 13 14 13 6 1 2 1 1 3 3 3 2 3 7 9 3 2 8 7 3 5 2 2 0 1 4 1 2 2 5 7 6 6 5 8 9 10 7 9 6 9 10 11 13 17 18 18 17 14 4 7 3 8 10 11 11 3 5 2 2 5 13 16 18 17 16 17 18 18 7 10 12 14 13 12 12 12 11 12 12 12
15 15 14 14 14 14 13 14 14 10 4 3 4 2 5 5 2 3 2 7 8 7 10 10 9 11 10 3 3 3 4 1 3 1 1 3 2 8 5 7 8 10 11 11 8 3 7 9 15 18 18 16 17 16 16 16 15 11 7 7 10 13 13 10 9 6 4 7 10 13 16 18 18 13 16 19 14 13 13 14 14 14 13 12 13 13 12 12
16 15 14 14 14 14 14 13 13 6 3 5 5 5 2 6 1 3 3 5 5 10 11 13 9 11 9 8 1 0 2 4 3 6 2 5 5 10 7 10 11 12 10 9 7 8 7 13 18 20 15 13 13 15 17 18 18 16 12 8 8 9 9 2 4 5 3 4 10 6 11 15 15 14 14 17 20 17 11 14 15 14 14 12 11 11 11 9
17 16 15 14 14 14 14 13 6 6 4 5 6 9 6 2 1 1 1 6 11 7 10 11 9 13 14 9 6 1 8 9 8 4 6 7 6 9 6 9 11 11 9 13 13 13 12 14 24 16 12 14 13 12 16 17 17 14 14 14 13 6 5 8 8 6 5 7 2 5 13 14 15 13 14 15 17 16 14 12 14 12 13 12 12 11 11 12
17 16 16 16 15 14 14 8 5 4 4 7 6 9 2 5 4 4 2 3 6 4 9 9 12 10 12 8 7 13 13 8 7 11 7 8 8 3 7 10 10 11 11 15 18 16 15 9 3 10 15 14 14 11 14 14 14 16 16 15 15 11 6 9 1 6 4 8 2 3 9 12 13 15 12 12 15 15 16 16 14 13 12 11 10 10 11 12
18 17 17 17 16 13 13 1 5 5 3 5 8 8 6 6 5 5 1 3 4 6 2 7 4 6 5 4 8 10 10 9 12 2 6 11 7 3 5 3 6 11 14 16 16 16 18 17 1 8 12 13 15 16 16 14 13 14 19 19 18 14 14 2 3 5 5 9 11 8 9 14 14 19 18 13 11 16 15 17 18 16 16 13 15 15 13 13
18 17 17 16 15 14 11 6 3 3 6 5 5 8 5 6 4 2 3 1 7 3 3 3 8 2 3 4 8 6 6 10 11 9 8 8 4 5 4 5 6 12 14 13 13 11 15 11 12 5 8 15 18 16 15 14 13 13 13 17 18 16 13 12 6 4 12 12 2 10 13 13 5 10 14 16 17 20 16 16 20 18 16 15 15 14 13 14
18 17 17 17 16 13 6 5 3 6 3 5 5 7 5 5 4 7 2 2 6 3 4 3 3 1 2 7 11 9 4 6 8 8 11 10 11 2 10 6 5 2 2 5 2 9 7 11 10 12 9 10 12 16 15 16 12 12 7 9 14 18 18 15 13 13 11 7 2 2 9 13 15 14 13 14 16 17 18 19 21 18 15 15 14 13 14 13
18 17 16 16 15 12 6 2 7 7 7 1 6 7 5 8 5 1 1 2 3 5 1 2 1 2 3 9 13 10 1 9 3 10 15 10 11 1 6 12 10 9 7 7 13 1 5 7 10 11 13 12 12 11 10 15 13 5 3 8 13 15 17 16 14 13 13 11 14 10 6 11 16 14 12 10 14 17 18 18 17 16 14 13 12 12 12 15
16 15 15 14 15 14 9 7 4 9 4 5 7 8 5 8 2 3 3 3 1 2 2 2 1 1 3 9 11 8 2 4 5 6 2 6 12 4 11 13 10 10 7 14 14 8 1 5 8 11 11 13 13 12 11 11 13 10 7 6 10 11 14 16 14 14 11 8 16 15 13 13 18 14 10 13 18 20 19 16 14 12 13 12 12 13 15 14
16 15 15 15 11 6 4 4 8 3 6 7 8 10 12 8 3 4 5 5 1 0 5 1 4 5 9 9 7 11 8 4 2 2 7 10 12 8 0 3 5 8 10 12 17 14 0 1 4 7 11 13 13 14 12 9 11 9 4 10 9 8 10 11 12 11 8 15 12 16 18 18 16 13 13 12 13 17 11 9 9 10 10 12 12 12 11 12
16 16 15 14 7 2 1 5 6 6 7 9 11 11 8 1 2 4 5 1 3 3 3 3 5 9 10 10 6 11 11 8 3 5 4 6 6 10 6 4 4 4 6 9 14 17 6 2 4 2 3 4 7 8 4 3 4 4 3 8 6 7 2 4 4 5 10 11 10 18 19 21 19 11 8 14 12 11 15 17 13 8 12 11 10 11 12 13
16 16 14 9 5 4 7 6 6 8 8 13 14 10 7 5 1 6 3 2 1 3 2 2 2 6 11 10 5 9 8 7 4 5 8 8 8 9 12 12 8 7 9 9 13 9 14 14 6 2 3 7 9 11 6 7 7 9 6 6 10 6 6 8 6 10 11 10 7 16 16 15 23 23 9 5 3 4 7 8 11 10 9 11 11 11 9 8
16 15 14 9 7 6 9 6 6 9 12 13 10 6 4 4 4 5 1 3 1 2 1 3 6 6 6 7 6 6 9 7 5 5 9 7 8 12 13 16 11 10 6 9 13 11 6 11 13 9 8 6 8 12 8 8 12 13 13 11 10 13 10 11 10 4 6 10 2 6 14 17 10 18 20 27 22 14 8 8 7 8 9 10 9 8 9 8
16 14 8 6 6 7 7 6 6 9 12 10 9 3 2 3 4 6 8 6 1 3 4 2 5 5 5 6 3 7 6 8 2 5 8 5 10 10 12 13 10 5 2 4 11 10 7 7 12 13 10 12 13 14 13 6 10 14 10 11 10 7 7 11 9 13 12 10 3 5 8 5 9 11 4 12 15 22 23 15 11 10 8 8 8 7 9 7
12 6 3 4 4 4 5 7 12 16 11 9 5 5 5 6 2 3 5 3 1 2 4 3 4 5 4 6 3 5 5 2 7 5 7 7 8 10 11 12 16 11 4 9 7 5 15 12 7 23 12 15 14 14 9 8 3 9 8 7 11 13 2 8 3 7 10 4 4 6 8 3 12 6 4 0 3 4 7 13 16 16 10 8 7 9 9 9
7 5 4 4 6 7 4 6 15 16 12 9 5 6 11 5 3 2 0 2 3 2 5 5 3 1 0 2 3 7 4 4 1 3 7 9 12 9 11 8 11 17 12 13 3 8 6 12 7 12 13 10 16 14 12 10 10 9 10 11 11 3 10 5 10 1 7 5 13 4 9 12 9 18 16 7 4 5 6 7 10 13 14 12 12 11 12 12
6 3 5 6 7 8 2 6 12 14 10 8 6 9 5 2 2 1 4 0 2 7 3 4 3 4 2 3 4 7 4 4 3 3 4 3 7 11 7 10 10 15 18 12 7 4 6 7 6 6 10 9 4 10 13 16 4 3 10 8 6 5 5 3 8 1 8 12 8 12 14 12 11 12 5 16 13 13 11 10 11 10 6 8 10 11 11 9
3 1 3 10 10 7 5 8 8 4 5 8 11 9 4 2 2 2 2 1 2 3 2 6 1 4 2 2 2 4 6 6 3 5 4 5 4 6 12 8 10 13 18 17 12 3 4 10 6 2 1 2 3 7 11 12 3 7 4 3 11 6 9 5 2 9 2 6 5 11 15 15 14 14 2 4 13 13 13 15 13 7 8 11 12 12 10 5
3 1 5 10 11 5 7 6 5 8 5 7 1 8 3 1 1 2 1 2 3 3 5 1 3 2 4 3 1 3 8 5 6 7 3 3 5 6 8 7 7 14 15 15 12 3 1 6 3 1 2 2 5 9 12 11 5 3 2 4 2 4 8 12 10 5 7 10 5 5 13 12 13 14 16 8 6 6 5 7 10 13 14 14 12 8 1 2
3 1 5 7 8 5 6 6 5 2 1 1 2 3 1 1 1 3 1 3 1 4 3 1 1 3 2 3 1 3 8 8 5 5 5 3 7 3 4 10 8 9 15 17 12 8 6 6 11 2 1 3 6 8 13 13 13 9 9 12 5 5 2 4 5 11 10 7 11 7 7 3 8 9 11 9 12 7 10 11 8 8 1 3 5 5 3 3
1 1 2 6 6 1 5 4 1 0 1 2 1 1 1 1 2 2 3 3 1 3 2 3 4 5 3 3 6 1 2 6 6 6 6 4 8 6 9 8 3 6 5 11 14 8 4 4 9 3 2 7 7 10 10 11 13 13 13 14 15 13 10 10 8 1 3 9 9 8 11 3 2 3 3 7 2 3 4 5 8 8 5 4 4 4 2 3
3 3 4 8 4 4 4 3 2 1 0 1 0 1 1 3 2 3 2 1 4 3 1 1 3 6 4 6 5 3 3 3 6 5 6 9 8 12 2 4 5 5 1 5 9 12 8 2 7 9 6 9 7 2 2 3 6 13 13 11 12 10 9 10 12 9 3 9 7 10 9 9 3 0 0 2 3 4 4 2 6 5 5 4 4 5 3 1
4 3 0 6 4 2 3 3 2 1 1 1 2 1 2 2 2 1 1 0 2 3 1 2 4 6 7 6 2 3 6 6 5 7 3 6 12 13 5 8 8 6 6 4 8 10 1 6 6 8 5 4 5 1 1 3 4 10 11 11 8 12 13 13 11 7 10 6 10 9 12 7 1 2 2 2 4 5 4 5 6 4 3 4 5 4 3 1
1 1 1 3 3 1 1 1 1 0 1 1 1 4 2 3 2 3 2 1 4 2 3 3 1 4 5 3 5 7 4 6 8 11 9 8 6 2 7 9 4 3 7 5 5 5 8 6 9 9 5 5 6 3 8 3 0 5 10 13 15 13 16 10 3 3 8 8 7 8 14 8 4 1 2 2 2 1 3 2 5 2 3 4 3 3 2 2
1 1 1 3 4 3 1 0 0 0 1 1 3 5 2 1 5 10 9 5 1 4 1 4 8 3 4 2 4 4 5 11 6 7 10 4 5 1 4 4 7 8 8 3 9 2 8 7 12 13 10 11 10 8 11 12 12 7 8 13 15 18 17 11 14 10 14 10 14 12 10 9 5 6 4 3 2 1 1 3 2 2 3 4 3 2 1 1
1 0 1 0 3 1 1 1 0 1 2 1 4 4 1 3 3 3 6 5 8 4 6 2 2 3 4 2 4 5 7 5 7 2 1 3 2 2 0 3 7 7 8 9 8 4 3 6 10 13 12 13 10 6 4 6 4 8 6 11 14 15 17 16 10 12 15 7 13 12 13 13 17 15 14 14 9 11 7 5 3 4 5 5 4 3 2 2
1 1 0 2 1 1 1 0 1 2 3 2 2 1 2 4 3 5 6 4 5 7 2 4 4 3 4 6 9 8 12 7 7 10 13 11 3 2 1 4 4 9 10 8 9 3 3 6 13 15 18 16 14 12 7 13 11 11 13 12 13 15 16 14 14 13 10 10 17 10 15 15 22 21 17 11 13 15 8 5 5 5 4 4 2 0 3 4
1 0 0 1 0 0 0 1 4 5 5 2 3 1 8 9 8 7 1 7 2 3 4 0 3 10 11 10 7 7 6 9 8 7 3 9 10 8 10 8 7 9 13 5 7 6 5 6 10 12 18 18 16 12 4 7 9 10 14 12 14 14 16 18 17 19 14 13 15 11 12 18 21 22 17 14 15 15 13 10 5 3 3 3 2 2 2 3
1 1 2 1 2 1 2 2 2 6 8 7 3 4 6 8 10 7 5 2 3 4 9 8 6 10 12 11 12 11 11 5 6 5 6 5 8 6 5 1 6 6 9 3 2 4 1 7 9 11 17 16 15 14 7 5 5 5 8 13 16 15 16 16 17 16 16 13 12 15 13 18 17 20 18 16 13 10 3 1 2 3 5 5 4 2 3 4
2 3 1 0 4 6 6 5 4 3 5 5 4 5 4 5 9 6 3 7 5 4 4 10 12 6 7 10 11 14 14 15 13 8 4 8 5 6 6 7 2 1 1 4 4 3 5 7 6 8 12 15 17 15 14 13 10 12 11 10 10 10 14 16 16 17 15 15 15 16 18 17 15 18 19 8 1 5 6 5 7 8 7 5 6 5 2 7
3 2 1 4 7 4 5 4 4 4 4 3 4 4 4 7 10 8 9 6 10 8 7 11 13 10 7 7 8 10 14 15 13 16 15 10 13 4 7 1 4 1 4 2 2 2 8 5 3 3 4 5 7 11 14 14 17 17 16 10 7 9 12 13 15 15 15 18 17 17 16 13 16 21 19 13 7 10 14 16 15 12 10 9 8 7 8 11
1 1 1 3 4 4 7 2 3 2 4 2 4 4 3 7 5 2 8 7 13 14 10 9 5 7 5 7 11 16 16 13 15 17 14 10 8 9 8 9 7 7 4 7 5 4 6 4 4 6 10 12 6 10 12 14 13 13 15 16 19 17 16 15 14 14 16 16 13 15 18 18 21 16 13 12 11 13 15 15 15 15 18 9 7 9 11 11
Wind_Direction
327 326 323 321 321 321 319 320 320 319 316 314 317 321 322 322 323 326 326 327 328 330 330 332 332 333 331 332 333 343 334 320 317 311 307 296 280 271 273 274 277 284 302 325 317 330 330 345 359 352 313 274 58 243 53 244 193 200 217 228 231 245 223 187 219 204 25 276 127 176 200 218 221 162 165 170 196 249 124 215 155 257 242 298 61 345 130 140
323 322 327 325 325 322 319 318 319 318 320 312 313 315 319 319 319 322 324 325 327 328 329 330 331 332 335 336 340 349 330 316 309 300 280 293 341 328 285 272 274 275 288 279 302 326 319 345 1 337 332 234 83 265 303 167 214 215 206 222 242 212 231 304 242 219 209 212 19 146 196 221 233 169 161 219 194 197 204 212 209 228 221 164 172 131 149 155
324 325 325 325 325 322 320 320 317 318 320 318 316 314 316 316 316 319 320 323 324 324 326 327 331 331 334 337 337 341 325 310 299 278 94 23 36 41 31 335 273 283 261 262 267 277 314 334 318 308 55 241 164 221 219 166 199 219 231 221 234 218 236 232 232 225 230 317 256 229 192 214 209 209 120 226 216 187 225 210 196 226 224 203 151 152 158 172
324 322 322 325 324 323 322 321 319 318 320 320 316 314 314 316 314 316 317 320 323 321 322 325 326 333 336 337 1 332 309 304 268 141 143 62 37 30 26 19 358 263 242 243 217 246 275 267 284 296 165 226 146 229 227 178 220 142 223 232 233 206 230 234 216 236 230 230 274 246 114 214 213 202 190 202 224 227 237 234 219 214 220 195 156 161 166 178
323 323 322 321 323 321 320 319 319 319 317 320 320 314 314 312 313 310 313 316 319 319 320 324 325 330 340 342 338 326 330 294 95 140 148 63 37 22 23 20 21 30 164 142 189 201 227 241 196 331 243 200 185 199 231 186 246 150 225 232 243 132 234 239 214 217 212 190 251 172 196 208 114 171 212 207 221 225 227 231 221 235 237 168 166 171 172 182
323 323 323 322 321 322 322 319 319 318 318 317 317 317 315 314 312 313 312 314 315 316 317 320 325 326 338 0 329 292 266 262 114 174 193 35 20 14 21 26 49 104 145 152 175 181 180 225 219 197 192 218 191 209 165 223 160 233 220 243 257 230 239 224 222 186 194 192 210 207 212 103 186 201 207 217 230 233 63 51 318 252 97 139 147 152 176 185
322 322 323 323 321 322 321 321 318 317 317 318 316 316 314 312 313 313 312 313 311 314 312 314 323 328 343 323 305 283 238 281 130 303 8 333 352 12 12 29 88 116 148 161 172 179 207 198 229 180 163 199 218 225 180 277 281 260 246 173 234 232 239 284 329 115 193 207 214 174 109 212 181 224 143 220 235 235 84 41 0 353 148 144 154 174 182 189
322 320 320 321 320 318 320 319 318 315 316 316 315 315 315 313 311 310 312 311 309 309 314 310 316 326 338 293 292 234 214 242 248 178 304 330 332 334 350 34 66 130 138 233 193 209 203 215 208 131 223 211 140 198 120 238 218 234 243 253 263 270 252 271 346 307 240 218 10 170 213 229 211 238 137 232 237 229 176 137 106 137 160 172 177 180 190 196
321 320 320 321 319 316 316 318 316 315 316 315 316 314 317 316 313 311 309 310 308 306 308 308 310 328 357 313 264 273 248 242 264 278 286 319 324 326 289 207 131 145 103 190 219 230 219 218 239 211 242 219 160 212 187 199 229 216 243 299 280 263 274 289 276 259 244 254 239 239 248 243 163 48 252 250 230 221 153 169 147 158 175 187 196 189 188 196
320 320 318 318 318 315 314 314 315 315 314 313 312 315 313 317 316 315 313 309 307 305 301 305 318 335 305 257 255 251 277 12 28 20 72 55 9 71 65 59 110 137 174 141 189 214 216 231 239 205 299 284 173 213 106 218 225 75 309 278 281 275 272 248 260 254 223 240 209 245 256 247 124 202 251 232 223 145 184 204 176 194 209 202 200 198 200 199
319 318 318 314 314 314 311 312 312 313 312 310 312 311 314 315 318 316 315 312 308 304 303 299 328 325 294 233 243 248 40 319 44 81 62 73 53 32 43 50 84 50 313 163 241 226 228 239 225 111 266 238 157 226 222 218 355 267 296 295 272 267 261 240 232 254 274 252 213 234 255 355 163 205 242 205 103 172 200 201 190 206 221 211 207 203 204 211
323 319 315 313 312 311 310 307 309 310 310 311 310 310 313 315 318 318 315 316 315 318 316 321 334 311 261 270 240 238 2 24 136 85 91 30 64 29 332 346 3 99 194 277 251 257 248 229 202 220 236 127 208 49 231 238 230 222 246 261 253 263 264 237 226 229 192 242 176 215 257 247 190 228 229 239 114 169 221 204 198 206 212 212 205 207 207 215
326 322 321 316 310 309 308 306 305 306 306 308 309 313 315 317 315 319 319 315 323 321 320 332 50 279 302 270 265 253 255 264 148 9 303 117 123 144 312 310 293 290 290 277 285 277 260 231 223 233 257 252 211 227 70 311 218 176 220 247 270 262 258 240 222 218 194 226 157 158 246 234 219 216 231 214 173 167 213 226 211 210 207 208 205 208 216 212
331 327 322 320 319 312 306 306 303 302 303 305 306 307 311 314 320 323 330 322 322 337 343 333 310 266 258 252 299 318 266 263 234 256 262 151 253 205 252 150 240 294 223 266 286 272 264 256 230 231 318 250 215 359 243 87 228 218 175 207 239 243 246 200 192 176 213 177 173 202 245 244 233 200 218 208 184 192 220 226 221 212 210 208 204 213 217 216
339 339 332 326 324 323 317 308 303 300 301 301 303 306 310 326 325 328 322 310 316 350 338 304 242 284 252 275 234 269 41 223 237 244 248 231 239 261 256 248 227 339 312 279 291 282 254 233 221 222 232 220 273 288 244 236 196 206 174 221 220 227 231 145 178 174 212 154 190 195 247 243 244 200 203 198 184 205 228 229 224 220 215 211 209 216 224 224
338 334 332 335 332 324 317 309 304 301 298 299 299 303 315 334 328 324 331 324 323 310 254 263 242 266 283 275 260 111 197 200 227 236 237 246 249 249 274 329 325 303 328 60 13 302 243 204 222 222 207 160 226 226 237 232 228 223 224 223 207 207 231 251 183 200 212 192 190 202 236 188 231 213 201 190 191 203 223 231 230 224 222 218 216 216 225 230
335 332 333 332 332 326 321 312 305 300 295 294 295 318 106 333 314 306 303 312 31 160 267 279 170 63 260 53 38 239 228 207 13 258 198 222 229 229 211 254 256 256 261 107 79 241 279 223 185 227 229 218 201 209 217 233 230 216 208 231 219 209 208 228 92 228 217 220 209 208 235 232 38 164 209 147 207 208 222 229 231 230 225 223 216 217 220 228
328 330 330 332 329 329 327 324 312 302 292 291 311 333 307 315 323 300 184 106 147 261 220 113 286 280 251 232 254 255 32 199 245 100 100 89 218 189 205 205 181 208 202 240 185 226 181 228 217 233 185 216 204 198 205 217 213 212 199 216 224 216 221 237 215 151 203 223 246 215 227 237 236 245 247 221 203 217 221 228 230 230 229 224 221 219 222 225
324 325 327 325 326 325 325 324 322 310 303 322 320 90 314 286 88 271 260 198 234 240 218 187 187 195 276 29 314 338 222 12 343 214 199 158 138 180 194 223 205 185 213 214 200 187 180 236 237 235 218 204 208 205 212 197 36 227 216 217 226 227 215 228 204 73 195 208 223 229 232 231 231 232 245 221 204 215 224 227 231 233 232 229 221 220 223 224
318 319 320 321 320 320 320 321 322 320 325 212 173 197 243 252 232 215 143 216 228 235 291 328 205 254 328 226 8 37 1 202 246 225 356 23 138 159 182 193 188 211 209 217 199 202 174 209 216 217 221 214 213 215 222 230 338 352 283 248 234 232 236 115 202 163 218 249 230 228 236 242 235 220 226 240 195 218 229 233 232 232 231 230 227 225 224 226
314 313 315 314 314 316 314 318 323 334 342 158 171 185 245 218 225 283 188 237 235 244 257 257 220 234 246 11 79 36 21 52 228 336 306 123 245 163 185 177 192 211 214 217 213 140 210 220 228 226 225 220 220 219 226 236 241 259 285 255 240 234 243 225 201 166 192 223 247 235 243 244 243 231 224 236 239 225 220 230 236 237 234 234 233 234 232 234
309 309 307 309 307 308 312 312 324 5 139 156 191 223 235 219 13 26 0 280 216 227 239 249 255 259 262 251 245 22 299 292 238 229 126 191 188 216 179 191 199 220 203 197 204 221 208 221 231 227 228 232 232 220 222 230 236 238 244 254 263 246 238 73 200 167 153 194 251 245 251 250 248 238 224 229 241 246 229 227 237 237 235 233 235 240 245 246
307 305 302 301 302 303 307 316 335 125 144 163 206 229 231 169 131 52 246 286 281 225 226 232 239 244 248 234 217 147 255 242 275 205 177 183 189 233 191 189 215 223 197 192 208 209 223 230 233 229 227 231 237 229 223 226 233 236 233 236 239 248 200 243 207 189 190 209 269 233 252 259 255 239 232 232 240 253 252 238 239 246 249 244 241 240 243 247
302 301 299 297 299 301 301 331 141 179 203 222 224 218 168 148 139 146 212 275 300 241 212 221 225 232 231 215 182 197 209 223 211 261 164 171 193 183 221 208 214 212 212 206 216 219 222 233 278 217 222 223 230 228 223 222 224 227 235 236 240 229 231 251 324 196 205 233 302 267 273 263 246 243 233 224 234 248 255 251 241 245 247 250 255 253 245 250
301 297 297 297 292 298 303 160 252 259 207 204 230 217 171 154 166 154 288 273 242 271 162 270 204 246 240 58 144 187 207 227 218 240 159 184 169 146 225 221 235 222 222 212 219 231 241 234 49 214 213 215 220 225 220 216 227 232 227 230 236 239 245 214 265 251 240 244 213 211 266 257 241 237 237 233 206 227 236 247 246 237 239 231 238 241 240 239
297 295 294 292 290 289 309 284 239 158 175 208 227 191 175 145 173 93 192 320 282 249 90 244 146 10 90 170 152 188 162 228 209 211 164 199 193 211 177 201 200 232 220 216 218 233 244 240 222 200 208 209 217 225 224 217 233 234 228 220 231 236 243 241 228 218 247 245 220 185 236 268 238 225 227 222 225 227 216 223 240 238 232 232 233 234 236 236
299 295 293 290 287 289 281 258 99 150 204 243 218 177 166 149 103 114 226 217 278 158 159 19 275 255 206 162 155 153 202 251 168 193 195 181 191 128 239 214 182 306 303 192 211 232 216 228 216 221 228 219 215 221 220 219 225 240 242 214 222 228 231 233 238 240 255 270 78 207 233 262 269 249 238 221 224 232 230 223 230 233 230 230 234 233 235 238
301 297 294 291 286 273 247 243 163 216 235 130 154 145 136 109 122 208 256 358 278 57 31 164 201 43 275 163 167 175 354 83 134 219 211 179 179 140 223 232 210 208 188 188 224 53 204 202 205 211 220 232 229 224 228 214 226 250 191 194 214 220 228 228 232 239 247 256 255 234 202 260 255 259 248 208 232 234 233 226 226 228 234 235 237 239 238 238
304 300 296 292 287 283 267 229 217 232 186 145 135 111 103 98 149 191 134 228 151 62 196 100 159 254 97 157 184 200 129 214 260 29 180 190 209 189 207 222 230 234 198 207 234 227 157 243 210 203 213 228 231 226 230 223 228 233 134 223 251 232 229 225 227 231 232 222 243 236 222 247 264 253 245 203 229 245 241 232 221 211 225 234 237 235 238 238
303 300 295 289 293 280 248 208 230 239 153 132 118 115 98 100 95 152 97 237 57 133 168 128 170 187 152 155 195 215 232 179 49 72 184 188 202 224 267 350 214 231 214 219 238 251 353 14 332 204 219 226 227 228 224 227 234 29 211 221 234 226 226 226 229 226 232 233 226 225 224 231 265 250 237 225 213 232 246 250 231 196 205 228 235 234 234 238
302 297 290 289 280 273 235 247 226 165 128 120 125 125 104 40 177 174 192 218 72 207 95 205 180 129 151 167 199 213 227 235 176 176 175 195 201 206 203 186 108 281 256 220 233 240 231 203 224 226 341 285 233 218 44 225 194 157 207 224 212 226 314 235 222 208 224 235 206 216 218 222 241 253 228 247 247 229 240 247 248 184 204 212 230 237 231 231
305 299 297 290 255 158 235 255 176 150 139 137 136 128 139 160 70 211 216 53 300 160 150 142 133 164 183 202 208 190 198 219 199 181 201 190 201 194 198 218 155 217 230 211 232 221 231 228 229 213 193 230 206 220 197 188 178 211 205 222 205 206 185 226 167 218 216 232 219 206 204 227 232 250 251 272 249 264 245 254 254 250 204 204 221 233 232 228
310 303 299 281 274 234 237 238 147 140 140 144 124 143 147 170 200 200 195 212 249 43 143 52 161 176 190 201 231 212 223 250 158 207 215 205 200 215 214 209 177 199 246 200 228 228 242 222 218 240 267 190 217 203 177 210 204 208 206 203 206 213 207 223 209 227 240 234 236 200 197 233 266 271 246 252 248 253 243 236 237 238 230 216 222 237 243 234
311 309 302 293 270 247 232 183 115 124 132 134 129 140 135 127 227 154 176 217 61 340 52 67 132 175 185 198 214 198 232 235 248 219 211 217 203 219 219 224 211 189 106 239 216 206 224 207 213 190 220 169 200 214 201 216 197 214 206 205 230 229 226 224 216 222 223 245 186 159 191 222 192 232 33 238 245 237 240 231 223 220 217 223 225 234 248 253
334 345 334 320 307 356 306 150 145 146 147 150 133 164 197 219 209 179 206 199 3 314 58 100 138 144 203 235 241 213 230 251 204 247 231 230 216 218 213 213 211 216 186 238 223 246 220 246 173 186 196 178 196 204 222 197 205 208 207 215 227 234 326 254 269 249 237 193 154 195 214 202 222 251 141 272 354 267 259 240 242 242 224 210 233 235 232 236
6 14 16 37 5 347 346 165 156 147 153 160 151 186 214 204 223 79 198 111 106 126 113 91 91 178 77 241 221 232 167 239 99 212 249 238 245 236 227 218 207 200 205 217 165 214 212 239 131 193 211 185 197 188 192 183 223 182 183 209 220 14 226 267 268 137 337 263 242 168 228 240 300 276 267 242 191 252 223 226 229 233 237 227 230 233 235 239
38 329 46 11 5 336 309 190 169 155 156 163 164 214 217 45 22 296 37 310 5 121 130 245 208 190 191 218 212 209 196 196 232 203 247 214 259 233 239 245 220 203 213 211 232 241 267 240 71 159 211 216 262 207 190 204 215 104 205 202 71 75 57 235 259 211 234 245 239 209 213 228 217 271 204 237 210 211 217 216 221 221 240 251 251 243 238 242
357 40 82 19 356 339 55 94 88 84 121 154 199 193 37 203 65 345 8 331 55 203 190 203 285 202 242 222 208 189 171 196 179 174 270 170 271 170 213 231 214 215 210 220 244 178 160 270 208 243 35 108 108 192 220 217 352 225 189 158 195 193 227 183 248 239 232 233 253 224 215 223 208 229 200 179 216 218 217 229 240 223 221 239 248 249 240 248
304 330 26 0 355 26 84 91 97 123 141 188 147 195 21 245 255 222 171 127 48 357 228 235 258 204 254 227 73 175 163 204 177 202 238 191 233 182 218 192 238 215 213 208 230 221 178 234 243 309 151 164 179 190 214 208 205 359 29 240 350 286 228 205 203 276 256 260 253 232 195 235 216 232 240 217 178 200 212 227 240 242 231 228 239 257 9 246
354 14 38 1 6 88 120 111 81 31 127 146 156 206 64 324 291 274 209 256 198 179 243 265 198 292 227 263 216 219 198 231 203 215 229 178 223 147 221 177 228 211 211 201 217 206 239 156 257 139 24 133 205 195 215 199 194 204 214 229 200 218 24 329 260 224 229 240 245 267 236 232 231 234 241 244 255 224 232 240 231 240 274 27 0 333 322 312
321 95 53 9 13 284 119 109 121 180 25 102 94 125 298 297 323 276 155 169 288 1 269 213 186 200 222 232 239 202 218 214 214 222 205 231 205 263 201 207 223 279 238 217 217 208 213 202 224 186 177 205 227 191 227 228 202 198 197 215 214 212 206 222 239 152 245 223 232 233 244 231 211 34 269 267 326 7 300 295 278 281 317 347 311 299 313 303
354 49 2 5 339 227 178 113 87 121 271 302 5 20 358 21 2 296 322 64 209 247 61 260 245 249 226 236 279 194 214 220 221 232 224 243 204 221 121 109 113 111 103 236 229 201 213 177 210 219 199 219 220 333 311 324 253 219 207 220 211 216 215 213 230 212 200 237 252 253 278 246 99 64 342 266 302 282 282 261 264 291 309 299 280 286 301 275
25 49 4 1 9 260 321 88 65 63 299 3 23 284 316 300 266 17 335 267 285 205 222 199 222 236 232 237 194 231 209 243 197 221 233 225 239 219 192 203 148 118 122 268 275 232 223 222 213 239 251 316 301 232 339 280 271 217 230 234 215 216 212 221 224 239 237 215 216 233 238 252 124 243 260 238 270 274 280 256 261 269 282 277 270 273 282 277
39 12 3 338 347 341 303 17 31 300 272 253 275 268 189 269 280 288 239 252 215 175 213 219 0 218 269 214 230 237 175 260 208 231 246 227 260 149 232 241 137 206 144 206 210 153 209 194 210 217 223 233 243 258 277 157 143 240 217 215 220 221 219 226 276 10 264 229 248 249 246 237 173 246 215 214 206 34 298 211 235 266 338 297 285 290 287 272
207 171 225 311 343 347 309 160 190 282 278 314 301 283 300 275 218 233 252 252 265 258 205 241 235 157 217 189 238 275 224 231 277 225 252 254 255 83 288 234 188 215 201 196 187 46 257 203 189 215 204 212 210 204 220 229 213 210 233 228 214 212 214 203 223 219 239 226 228 229 250 249 229 184 200 201 117 110 172 294 255 247 264 285 295 254 279 276
357 72 340 39 7 16 91 109 89 301 314 301 282 260 219 250 280 246 213 251 214 225 235 264 346 234 217 181 231 243 249 248 239 296 240 262 275 266 227 184 192 201 222 219 233 114 249 246 221 212 210 217 211 196 102 99 132 206 211 224 223 215 220 218 225 225 226 230 239 236 250 266 262 255 251 259 267 271 242 187 202 225 230 241 234 253 254 238
211 28 5 8 313 65 266 227 234 146 274 180 276 118 238 224 273 293 179 253 203 215 246 218 200 199 223 208 234 240 238 244 224 246 247 256 256 252 264 198 218 214 205 213 207 198 246 240 230 231 229 231 231 219 179 185 199 204 207 216 218 213 210 217 217 230 207 220 244 218 225 238 256 255 253 244 251 268 278 213 211 223 238 290 315 293 228 237
336 119 171 174 215 306 288 257 211 244 255 169 264 173 272 277 278 279 284 230 296 172 233 196 188 234 238 219 221 236 225 231 221 238 244 244 265 269 277 209 220 214 202 211 159 192 251 254 237 230 236 236 242 234 177 202 201 201 206 209 210 208 206 212 221 229 225 225 239 226 211 228 243 252 250 240 240 244 242 237 229 266 301 272 251 232 224 237
136 129 231 333 301 220 227 313 206 273 270 248 261 241 260 261 270 257 252 309 204 217 194 257 233 220 226 231 236 249 243 248 245 221 247 241 209 241 248 291 230 195 194 179 155 190 170 258 253 220 236 235 238 235 225 202 217 227 220 215 208 199 202 207 220 224 225 235 241 250 247 237 241 254 249 242 240 244 240 50 152 194 214 213 219 224 276 277
30 335 351 209 236 281 283 289 280 268 261 252 235 230 234 258 269 270 221 235 256 245 182 231 250 240 232 232 234 245 252 254 269 284 212 225 245 204 260 245 279 49 187 212 182 213 189 251 217 241 238 233 229 230 234 235 239 237 228 231 222 205 203 203 213 224 228 237 239 246 250 250 248 253 259 248 73 310 262 204 210 221 223 200 189 188 209 263
311 244 288 306 299 286 270 240 238 248 282 254 236 260 237 246 260 264 266 200 240 262 175 224 236 249 238 236 245 253 255 254 252 252 261 254 267 202 235 285 219 194 182 198 208 200 179 259 114 252 268 257 228 234 235 235 235 233 240 220 207 207 214 209 212 208 208 218 226 239 250 258 257 250 253 237 178 221 239 251 264 274 255 201 205 203 210 228
276 213 270 264 269 266 283 232 221 254 257 246 251 246 243 291 286 43 299 219 230 240 245 243 262 267 258 238 245 243 246 250 250 252 259 271 272 285 258 262 200 230 242 214 186 219 189 245 247 226 242 255 226 206 222 230 237 238 229 221 216 210 209 211 219 218 214 206 219 222 232 232 238 248 256 242 197 211 231 239 242 240 252 254 209 206 209 223